Showing default

SERVIS 2, 36588

Orbit data source: Space-Track

SERVIS 2, 36588 is a payload satellite owned by USEF (JP) in SSO that was launched on Wed, 02 Jun 2010 UTC via an ROKOT launch vehicle from the Plesetsk Missile And Space Complex (PKMTR). Payload-class satellites include a variety of spacecraft equipped with specific instruments for various scientific and technological missions. These include communications satellites like Starlink; space stations such as the ISS; scientific satellites like the Hubble; Earth observation satellites from companies like Planet Labs, Umbra, and HawkEye 360; GPS; miniature CubeSats for education and research; and military/defense satellites.

Loading next visibility...
Identifier
36588, 2010-023A
Orbit
SSO
Country
Flag of JPJP / JPN
Related business
Manufacturer
MELCO
Mission
Commercial Technology
Bus & Motor
SERVIS, Unknown motor
Mass
740 kg wet, ~700 kg dry
Launch date (UTC)
2010-06-02 (15 years ago)
Launch vehicle
ROKOT
Launch site
Plesetsk Missile And Space Complex (PKMTR)
Object type
Payload
Rocket body
Debris
Shape & HBR
Box + 2 Pan, 5.1 m
Radar Cross Section
8.092 m², Large (>1 m²)

Expand to show TLE details & history
Last TLE update: 8 hours ago

TLE from 8 hours ago
0 SERVIS 2
1 36588U 10023A   25307.80061259 -.00000002  00000-0  11194-3 0  9996
2 36588 100.4260 133.7842 0017827  68.8803 302.0993 13.16036582741127
Epoch: 2025-11-03T19:12Z
TLE epoch observation values (Epoch: 2025-11-03T19:12:52.927Z)
Latitude
10.5783°
Longitude
160.30761°
Altitude
1,194.7 km
Speed
7.261 km/s
True Right ascension
08h 47m 17s
True Declination
10° 31' 12"
Sunlit
Object was in daylight at epoch
Visualization orbit readout
Latitude
Unknown
Longitude
Unknown
Altitude
Unknown
Speed
Unknown
Apparent Right ascension
Unknown
Apparent Declination
Unknown
Sunlit
N/A
Visualization observer readout
Local Sidereal Time
22:58:28
Azimuth
Unknown
Elevation
Unknown
Doppler factor
Unknown
Orbital elements
Apogee altitude
1,210.786 km
Perigee altitude
1,183.777 km
Semi-major axis
7,575.419 km
Eccentricity
0.00178
Inclination
100.426°
RAAN
133.7842°
Arg. of periapsis
68.8803°
True anomaly
301.92604°
Mean anomaly
302.0993°
Eccentric anomaly
302.01269°
Mean motion
3.2918 °/min
Orbital period
109.36 mins
BSTAR
0.00011194
Loading maneuver chart data...
Computing Atmospheric mass density...
Loading historical data...
Loading historical data...
Loading historical data...
Loading historical data...
Loading historical data...
Loading historical data...
Loading historical data...
Other satellites on launch #23 in the year 2010 (2010-06-02 UTC)

Documentation

Showing up to 5 results
|